星链-34792 (STARLINK-34792)

导读

STARLINK-34792是美国太空探索技术公司(SpaceX)星链(Starlink)卫星互联网项目的成员,于2025年8月4日发射升空。星链项目旨在构建覆盖全球的低轨卫星互联网星座,为偏远地区、海上及航空等场景提供高速网络服务,STARLINK-34792加入将进一步扩展星座规模,提升星座网络覆盖能力与服务稳定性。

Basic Information
目录编号:
65085
目录名称:
STARLINK-34792
国际标识:
2025-167H
轨道中心:
EARTH
卫星名称:
星链-34792
卫星全名:
星链-34792 (STARLINK-34792)
卫星状态:
已陨落 最后检测时间 2026-04-24
发射日期:
2025-08-04 UTC
国别 :
美国 (US)
星等 :
--
Orbit Information
数据来源 国际轨道数据
星历时间: 2026-04-24T23:05:38+0800
轨道信息已过期50天
半长轴: 6574.632km
偏心率: 0.0001898
轨道倾角: 53.151°
近地点辐角 300.850°
升交点赤经 166.728°
平近点角 59.236°
近地点: 195.247km
远地点: 197.743km
周期: 88.423分钟
每日圈数: 16.285297
Detailed Information
固有亮度:
5
最大亮度:
2.5
卫星平台:
Starlink V1.0
覆盖范围:
全球
运营商:
太空探索技术公司
运营商所在国:
美国
制造商(研发单位):
太空探索技术公司
制造商所在国:
美国
使用方式:
暂无
Satellite Introduction
Starlink 计划是 SpaceX 推出的全球卫星互联网项目,通过发射低轨道卫星,为全球尤其是偏远地区提供高速、低延迟的互联网服务。自 2019 年起,Starlink 已部署数千颗卫星,旨在缩小全球数字鸿沟,推动互联网普及。该项目还为军事、航空等行业提供通信支持,带来广泛经济效益。